Wind_Speed
10 10 11 11 12 12 14 15 16 18 19 19 21 23 24 24 26 28 29 31 33 36 38 40 43 46 49 53 57 60 64 67 70 73 76 80 84 88 89 87 84 81 80 79
8 9 9 10 11 13 14 16 17 18 19 20 21 23 24 24 25 27 28 31 33 36 38 41 44 47 51 55 58 61 65 68 71 74 77 81 85 87 86 83 81 79 78 78
6 7 8 9 11 13 14 15 17 17 18 20 20 21 23 23 25 26 28 31 34 37 40 43 46 49 52 56 59 63 66 68 71 74 78 82 85 85 83 80 78 77 77 77
5 5 6 8 10 12 13 15 16 18 19 20 21 21 23 24 25 27 29 32 35 38 41 44 47 50 53 57 60 63 66 69 72 75 78 81 83 83 80 78 76 75 76 76
3 3 5 7 9 11 13 15 16 18 19 20 22 22 24 25 26 28 31 34 37 39 42 45 48 51 54 57 61 64 67 70 72 75 78 81 82 81 78 75 74 73 74 74
2 1 3 5 8 10 12 14 16 18 19 21 23 24 25 27 28 30 33 35 38 41 44 46 49 52 55 58 61 65 67 70 72 75 78 80 81 79 76 74 72 72 73 72
3 1 2 4 6 9 11 14 16 19 21 22 23 25 27 29 30 33 35 38 40 43 45 48 50 53 56 59 62 65 67 70 72 75 78 79 79 77 74 72 71 71 71 71
5 3 1 2 5 8 11 14 17 20 21 22 24 26 28 30 33 36 38 40 43 45 47 49 52 54 57 59 62 65 67 70 72 75 77 78 78 75 73 71 70 70 70 70
7 5 3 2 4 7 10 13 16 18 20 22 25 27 30 33 36 38 41 43 45 48 50 51 53 56 58 60 63 65 67 69 71 74 76 77 76 74 71 70 69 69 69 69
10 8 5 4 5 7 10 13 16 19 23 24 27 29 32 35 37 40 43 46 48 51 53 54 55 57 59 61 63 65 67 69 71 73 75 76 75 72 70 69 68 68 68 69
12 10 8 7 7 8 11 13 16 19 23 26 29 31 33 35 38 41 45 48 51 53 56 57 58 59 61 62 63 65 67 68 70 73 74 75 74 71 69 68 67 67 67 68
14 13 11 10 10 10 12 14 16 19 21 24 27 30 33 36 39 42 45 49 52 55 58 60 60 61 62 63 64 65 67 68 70 72 74 74 72 70 68 66 66 66 66 67
17 15 14 13 13 13 14 16 17 20 22 24 27 30 34 36 39 43 46 49 53 56 59 61 63 63 64 64 65 65 67 68 69 71 73 73 72 70 68 66 65 65 65 66
20 18 17 16 16 16 16 18 20 22 24 26 28 30 33 37 40 43 46 50 53 57 60 63 65 66 66 66 66 66 67 68 69 71 72 72 71 69 67 65 64 64 64 65
22 21 21 20 19 18 19 20 21 23 26 28 30 32 35 38 41 44 47 50 53 57 60 63 66 67 67 67 67 66 66 68 68 70 71 71 71 68 66 65 64 63 63 64
25 24 24 23 23 22 21 22 23 25 27 29 31 33 36 38 42 44 47 50 53 57 60 64 66 68 69 68 68 67 67 67 68 69 70 71 70 68 66 64 63 62 62 62
28 28 28 26 26 26 24 24 25 26 28 31 32 35 37 39 42 45 47 50 53 57 60 64 66 69 70 70 69 68 67 67 68 68 69 70 70 68 65 63 63 62 61 61
31 31 32 30 29 29 27 27 28 28 30 32 33 35 38 40 42 46 48 50 53 57 60 63 66 69 70 71 70 68 67 67 67 67 68 69 69 67 65 63 62 62 61 60
34 34 35 34 33 32 29 30 31 32 31 33 35 36 39 42 43 45 48 50 52 56 59 62 65 68 70 71 71 69 67 67 67 67 67 68 68 66 64 62 61 61 60 59
36 37 38 37 37 36 32 33 35 36 34 35 37 38 41 44 46 47 48 50 52 55 59 62 65 67 69 71 71 70 68 66 66 66 66 67 67 66 63 61 60 60 59 59
38 40 40 40 40 38 35 36 37 37 38 38 39 41 42 45 47 48 49 51 52 55 58 61 63 66 68 70 71 70 68 66 65 65 65 66 66 65 63 61 60 59 59 58
40 41 41 42 42 38 37 37 38 40 40 40 41 42 44 45 47 48 49 50 52 54 56 59 62 65 67 69 70 70 68 66 65 64 64 65 65 64 62 60 59 58 57 56
42 42 44 44 41 38 37 38 40 42 42 43 43 44 45 46 47 49 49 50 51 53 55 58 61 63 66 68 69 69 69 66 64 64 63 64 64 64 62 60 58 56 55 54
45 44 45 44 40 36 37 39 41 43 44 45 45 46 47 48 48 49 50 50 50 52 54 57 59 62 64 67 68 69 68 66 64 63 62 63 63 63 63 60 57 55 53 52
50 48 47 46 39 36 37 39 41 43 45 46 47 48 48 49 49 50 50 50 50 51 53 55 58 60 63 65 66 67 68 66 63 62 61 61 62 62 62 61 57 55 53 51
54 51 50 48 42 43 41 40 41 44 45 46 48 48 49 50 50 50 50 50 50 50 52 55 57 59 61 64 64 66 67 66 63 61 60 60 60 61 61 60 58 55 52 51
Wind_Direction
333 338 340 344 347 350 351 349 347 344 341 338 333 331 333 331 330 329 328 326 325 324 323 323 322 323 324 324 325 325 325 325 325 325 325 324 324 323 323 323 323 323 323 323
332 337 342 346 350 353 352 351 350 347 343 341 338 335 337 336 334 332 330 328 326 325 325 324 325 325 326 326 327 327 326 326 326 326 326 326 326 325 325 325 326 326 327 327
327 337 346 354 357 357 356 356 355 353 351 349 347 343 343 343 340 337 334 331 329 327 327 327 327 327 328 328 328 328 328 328 328 328 328 328 328 328 328 329 329 329 330 331
319 339 356 5 6 6 4 4 4 2 360 358 355 353 351 349 345 341 338 334 332 330 329 329 329 329 329 330 330 329 329 330 330 330 331 331 331 331 331 331 332 333 334 334
302 344 9 17 18 17 16 15 13 11 8 3 2 0 358 354 350 345 341 338 335 333 332 331 331 331 331 331 331 331 331 331 332 333 333 333 333 334 334 334 335 336 337 338
269 346 22 28 30 30 29 26 22 20 17 12 9 7 4 0 354 349 346 342 340 337 335 334 333 333 333 333 333 333 333 333 334 335 335 336 336 336 336 337 338 339 340 341
240 263 21 30 32 35 34 31 28 27 23 19 14 12 9 4 360 355 352 348 345 342 339 337 336 335 335 335 335 335 335 335 336 337 337 338 338 338 339 340 341 342 343 345
232 237 292 18 26 26 28 27 27 27 24 20 17 16 11 7 4 1 357 353 350 346 343 341 340 339 338 337 337 337 337 337 338 339 339 340 340 340 341 342 344 345 346 348
232 235 249 317 5 13 18 20 21 21 20 17 16 13 10 9 6 2 359 356 354 351 348 345 343 342 340 339 339 338 338 339 340 341 341 342 342 343 343 344 346 348 349 350
234 240 253 286 325 349 1 7 9 10 11 12 10 9 7 6 3 1 359 357 356 354 352 348 346 344 343 341 340 340 340 341 341 342 343 344 344 345 345 347 349 350 351 353
239 245 257 278 305 329 342 352 359 1 2 2 3 2 2 1 0 360 359 357 356 355 354 351 348 346 345 343 342 341 341 342 343 344 345 346 346 346 347 349 351 352 353 355
242 249 259 274 293 310 325 337 346 351 354 355 356 355 356 357 357 357 356 356 355 355 355 353 351 348 346 345 344 343 343 344 345 345 346 347 348 348 349 351 352 354 355 357
246 252 261 273 285 299 313 324 333 339 344 347 349 351 350 353 354 354 354 354 354 354 354 353 352 350 348 346 345 344 344 345 346 347 348 349 349 350 351 352 353 355 357 358
250 255 262 271 281 292 304 313 322 328 334 339 341 344 346 348 351 352 352 353 353 353 353 353 353 351 349 347 346 345 345 346 347 348 349 350 350 351 352 353 354 356 358 359
254 258 264 269 277 285 296 305 314 320 325 331 335 338 342 345 347 349 350 351 351 351 352 352 352 352 350 348 347 346 346 347 348 349 350 351 351 352 353 355 356 357 358 0
258 262 265 270 276 282 290 300 307 313 318 324 329 333 338 341 343 346 348 348 349 350 351 351 351 352 351 349 348 347 347 347 348 349 351 351 352 353 354 355 356 358 359 1
261 265 267 270 275 281 288 293 299 306 312 318 323 328 333 337 340 342 345 346 348 348 349 350 350 351 351 350 348 347 347 348 349 350 351 352 353 354 355 356 357 359 0 2
262 266 269 272 274 277 285 288 294 300 307 312 317 322 327 332 336 339 342 344 346 347 347 348 349 350 350 350 349 348 348 348 349 350 352 353 353 354 355 356 357 359 1 2
262 266 269 273 275 278 282 286 290 296 303 307 312 317 321 326 331 335 338 341 343 345 346 346 348 349 350 350 349 348 348 348 349 350 352 353 354 355 355 356 357 359 1 2
262 265 268 272 275 279 283 285 289 293 297 302 307 312 317 322 326 331 335 338 340 342 344 345 346 347 348 349 349 348 348 348 349 350 351 353 354 355 355 356 357 359 1 3
261 264 267 271 274 279 284 287 289 292 296 300 304 309 313 318 322 326 330 334 337 340 341 343 344 345 347 348 349 348 348 348 349 350 351 352 354 355 356 357 358 359 1 3
264 265 266 268 272 278 281 284 286 289 292 296 301 305 309 313 317 321 326 330 333 337 339 340 342 343 345 346 348 348 347 347 348 350 351 352 354 355 356 356 358 359 1 3
265 267 268 269 273 277 280 282 285 287 290 293 296 300 304 308 312 317 322 326 329 333 336 338 340 341 343 345 346 347 347 347 348 349 350 351 353 354 356 357 358 359 1 2
265 266 268 270 274 277 278 279 281 283 286 289 293 296 300 304 308 312 317 321 325 329 333 335 337 339 341 343 345 346 347 346 347 348 350 351 352 353 355 357 358 359 0 2
265 266 269 271 274 275 273 276 278 281 283 286 289 293 297 300 304 308 313 317 321 325 329 332 334 336 338 341 343 345 346 346 346 347 349 350 351 352 354 356 357 358 359 1
264 268 270 272 274 273 271 272 275 277 279 282 286 289 292 296 300 304 308 313 317 321 325 329 331 334 336 339 341 343 345 345 345 346 348 349 350 351 353 354 356 358 359 360
Height
5898 5897 5894 5891 5889 5886 5883 5881 5878 5875 5871 5868 5864 5861 5857 5853 5849 5845 5840 5835 5829 5823 5817 5810 5802 5794 5785 5775 5765 5753 5741 5728 5714 5699 5684 5667 5648 5628 5607 5586 5566 5548 5531 5514
5897 5895 5893 5890 5887 5884 5882 5879 5876 5873 5869 5866 5862 5858 5854 5850 5846 5842 5836 5831 5825 5818 5811 5804 5795 5787 5777 5767 5756 5744 5731 5717 5703 5688 5671 5654 5634 5613 5592 5571 5551 5533 5515 5497
5896 5895 5892 5889 5886 5883 5880 5878 5875 5871 5868 5864 5860 5857 5852 5848 5843 5838 5832 5826 5820 5813 5806 5797 5788 5779 5769 5758 5747 5734 5721 5707 5692 5676 5659 5640 5620 5598 5578 5558 5539 5520 5501 5482
5895 5893 5891 5888 5885 5882 5880 5877 5873 5869 5866 5862 5859 5855 5850 5845 5840 5834 5829 5822 5815 5808 5799 5791 5781 5772 5761 5750 5738 5725 5711 5697 5681 5665 5647 5628 5608 5587 5566 5546 5527 5508 5489 5470
5894 5892 5890 5888 5885 5882 5879 5875 5872 5868 5864 5860 5856 5852 5849 5842 5837 5831 5825 5818 5810 5802 5793 5784 5775 5764 5753 5742 5729 5716 5702 5687 5671 5654 5636 5616 5595 5575 5555 5536 5517 5498 5479 5459
5893 5891 5889 5887 5884 5881 5878 5875 5872 5867 5863 5859 5855 5850 5846 5840 5834 5828 5821 5814 5805 5797 5788 5778 5768 5757 5746 5734 5720 5707 5692 5677 5660 5643 5625 5605 5585 5565 5545 5527 5509 5490 5471 5451
5891 5890 5888 5886 5883 5881 5878 5875 5872 5867 5862 5858 5853 5848 5844 5838 5831 5824 5817 5809 5800 5791 5782 5772 5761 5750 5738 5726 5712 5698 5683 5667 5651 5633 5614 5595 5575 5555 5537 5519 5501 5483 5464 5445
5889 5889 5887 5884 5882 5879 5876 5873 5870 5865 5861 5857 5852 5846 5842 5836 5828 5821 5813 5805 5796 5786 5776 5766 5755 5743 5731 5718 5704 5690 5675 5659 5642 5624 5606 5586 5567 5548 5529 5511 5493 5475 5456 5438
5887 5887 5885 5882 5880 5878 5874 5871 5868 5864 5859 5855 5850 5845 5839 5832 5825 5817 5809 5801 5791 5781 5771 5760 5748 5736 5723 5710 5696 5682 5667 5651 5634 5616 5598 5579 5560 5541 5523 5505 5486 5469 5450 5432
5885 5884 5883 5880 5878 5875 5873 5869 5865 5861 5856 5852 5847 5841 5835 5828 5821 5814 5806 5797 5787 5777 5765 5754 5742 5730 5717 5703 5690 5675 5659 5644 5627 5609 5591 5573 5554 5535 5517 5499 5481 5464 5446 5428
5882 5882 5880 5878 5875 5873 5870 5866 5862 5858 5853 5848 5842 5840 5833 5826 5818 5810 5802 5792 5782 5772 5760 5748 5736 5724 5711 5697 5683 5668 5653 5637 5620 5603 5585 5567 5549 5531 5513 5495 5478 5461 5444 5426
5878 5878 5876 5875 5873 5870 5867 5863 5860 5856 5851 5845 5841 5838 5829 5822 5814 5806 5798 5788 5778 5767 5755 5743 5731 5718 5705 5691 5677 5662 5647 5631 5614 5597 5580 5562 5544 5527 5509 5492 5475 5459 5442 5424
5874 5874 5873 5871 5871 5867 5863 5860 5856 5852 5848 5843 5838 5835 5825 5819 5811 5803 5794 5784 5774 5763 5751 5739 5726 5713 5699 5685 5671 5656 5641 5625 5609 5592 5576 5558 5541 5524 5507 5490 5474 5457 5441 5424
5870 5869 5869 5868 5865 5862 5859 5856 5852 5848 5844 5840 5835 5830 5823 5815 5807 5799 5790 5780 5770 5759 5747 5734 5721 5708 5694 5680 5666 5651 5636 5621 5605 5589 5572 5555 5538 5521 5505 5488 5472 5456 5440 5424
5864 5864 5862 5861 5859 5857 5854 5851 5848 5843 5839 5835 5831 5825 5818 5811 5803 5795 5786 5776 5766 5754 5743 5730 5717 5704 5690 5675 5661 5647 5632 5616 5601 5585 5569 5552 5536 5519 5503 5487 5471 5456 5440 5424
5858 5858 5857 5856 5853 5851 5849 5846 5842 5838 5834 5830 5825 5820 5814 5806 5798 5790 5781 5772 5762 5750 5738 5726 5713 5700 5686 5671 5657 5643 5628 5613 5597 5582 5566 5550 5534 5518 5502 5487 5472 5456 5441 5425
5851 5851 5850 5849 5847 5845 5844 5841 5837 5834 5830 5825 5820 5815 5808 5802 5794 5785 5777 5767 5757 5746 5734 5722 5709 5696 5682 5668 5653 5639 5624 5609 5594 5579 5563 5548 5532 5517 5501 5487 5472 5457 5442 5427
5844 5843 5841 5841 5840 5838 5840 5835 5831 5828 5824 5819 5814 5808 5803 5796 5789 5780 5772 5762 5752 5742 5730 5718 5706 5692 5679 5664 5650 5635 5621 5606 5591 5577 5561 5546 5531 5516 5501 5487 5472 5458 5443 5429
5836 5835 5833 5832 5831 5831 5832 5828 5824 5821 5818 5812 5807 5802 5797 5790 5784 5776 5766 5757 5747 5737 5726 5714 5702 5689 5675 5661 5647 5633 5618 5604 5589 5575 5560 5545 5530 5515 5501 5487 5473 5459 5445 5431
5827 5826 5825 5823 5821 5822 5825 5820 5815 5813 5810 5806 5800 5795 5789 5782 5776 5770 5760 5751 5742 5732 5721 5710 5698 5686 5672 5659 5644 5630 5616 5602 5588 5573 5559 5544 5530 5515 5502 5488 5474 5460 5446 5432
5818 5816 5816 5814 5812 5813 5814 5810 5806 5804 5801 5796 5791 5786 5781 5775 5768 5762 5753 5745 5736 5727 5716 5705 5694 5682 5669 5656 5642 5628 5614 5600 5586 5572 5558 5544 5530 5516 5502 5489 5475 5461 5447 5433
5808 5807 5807 5805 5804 5807 5803 5800 5797 5794 5791 5787 5782 5777 5773 5767 5761 5754 5746 5738 5730 5721 5711 5701 5690 5678 5666 5653 5639 5626 5612 5598 5584 5571 5558 5544 5530 5516 5503 5490 5476 5463 5450 5437
5797 5797 5795 5795 5798 5797 5793 5790 5786 5783 5780 5777 5773 5769 5764 5759 5753 5746 5739 5731 5724 5715 5706 5696 5686 5675 5663 5650 5637 5623 5610 5596 5583 5570 5557 5544 5530 5517 5504 5491 5478 5466 5453 5441
5785 5785 5784 5784 5788 5786 5783 5779 5776 5772 5769 5766 5762 5759 5754 5749 5744 5738 5732 5724 5717 5709 5700 5691 5681 5670 5659 5647 5634 5621 5607 5594 5581 5568 5556 5543 5530 5517 5505 5492 5480 5468 5457 5445
5771 5772 5772 5773 5776 5774 5772 5768 5764 5761 5758 5755 5752 5748 5744 5739 5735 5729 5723 5717 5710 5702 5694 5685 5676 5666 5655 5643 5631 5618 5605 5592 5579 5567 5554 5542 5529 5516 5504 5493 5481 5469 5458 5446
5759 5761 5760 5760 5763 5758 5759 5757 5753 5750 5747 5744 5741 5738 5734 5729 5725 5720 5715 5708 5702 5695 5687 5679 5670 5661 5650 5639 5627 5615 5602 5590 5577 5565 5553 5540 5528 5516 5503 5491 5480 5469 5458 5447